Rutland, VT

12:34 AM EDT on July 26, 2017 (GMT -0400)
Rutland State

Weather History for KRUT - August, 2012

Change the Weather History Date:

Wednesday, August 1, 2012

  Actual Average Record
Temperature  
Mean Temperature 71 °F -  
Max Temperature 81 °F - 95 °F (1975)
Min Temperature 61 °F - 40 °F (1964)
Degree Days  
Heating Degree Days 0    
Month to date heating degree days 0  
Since 1 June heating degree days 102  
Since 1 July heating degree days 5  
Cooling Degree Days 6    
Month to date cooling degree days 6  
Year to date cooling degree days 270  
Since 1 June cooling degree days 228  
Growing Degree Days 20 (Base 50)    
Moisture  
Dew Point 53 °F    
Average Humidity 54    
Maximum Humidity 68    
Minimum Humidity 39    
Precipitation  
Precipitation 0.57 in - 2.41 in (2003)
Month to date precipitation 0.57  
Year to date precipitation 12.73  
Sea Level Pressure  
Sea Level Pressure 29.87 in    
Wind  
Wind Speed 4 mph (South)    
Max Wind Speed 9 mph    
Max Gust Speed 18 mph    
Visibility 10 miles    
Events Thunderstorm    
T = Trace of Precipitation, MM = Missing Value Source: NWS Daily Summary

Daily Weather History Graph

Daily Weather History Graph

Search for Another Location

Airport or City:

Trip Planner

Search our weather history database for the weather conditions in past years. The results will help you decide how hot, cold, wet, or windy it might be!

Date:

Astronomy

Aug. 01, 2012 Rise Set
Actual Time 5:41 AM EDT 8:13 PM EDT
Civil Twilight 5:09 AM EDT 8:46 PM EDT
Nautical Twilight 4:28 AM EDT 9:26 PM EDT
Astronomical Twilight 3:42 AM EDT 10:12 PM EDT
Moon 7:39 PM EDT (8/1) 5:08 AM EDT (8/1)
Length of Visible Light 15h 37m
Length of Day
14h 32m
Full, 100% of the Moon is Illuminated
Aug 1
Full
Aug 1
Full
Aug 9
Last Quarter
Aug 17
New
Aug 24
First Quarter

Hourly Weather History & Observations

Time (EDT) Temp. Heat Index Dew Point Humidity Pressure Visibility Wind Dir Wind Speed Gust Speed Precip Events Conditions
12:15 AM 66.2 °F - 50.0 °F 56% 29.92 in 10.0 mi SE 10.4 mph - N/A   Mostly Cloudy
12:35 AM 64.4 °F - 50.0 °F 59% 29.92 in 10.0 mi SSE 10.4 mph - N/A   Mostly Cloudy
1:15 AM 64.4 °F - 48.2 °F 56% 29.91 in 10.0 mi SSE 8.1 mph - N/A   Mostly Cloudy
1:35 AM 64.4 °F - 50.0 °F 59% 29.91 in 10.0 mi SE 9.2 mph - N/A   Partly Cloudy
1:55 AM 64.4 °F - 50.0 °F 59% 29.90 in 10.0 mi SE 6.9 mph - N/A   Clear
2:15 AM 64.4 °F - 50.0 °F 59% 29.90 in 10.0 mi SE 9.2 mph - N/A   Clear
2:35 AM 62.6 °F - 48.2 °F 59% 29.90 in 10.0 mi SE 6.9 mph - N/A   Clear
2:55 AM 62.6 °F - 48.2 °F 59% 29.89 in 10.0 mi SE 9.2 mph - N/A   Scattered Clouds
3:35 AM 62.6 °F - 48.2 °F 59% 29.89 in 10.0 mi SSE 6.9 mph - N/A   Scattered Clouds
3:55 AM 60.8 °F - 48.2 °F 63% 29.88 in 10.0 mi SSE 4.6 mph - N/A   Scattered Clouds
4:15 AM 60.8 °F - 48.2 °F 63% 29.87 in 10.0 mi SE 8.1 mph - N/A   Clear
4:35 AM 62.6 °F - 50.0 °F 63% 29.88 in 10.0 mi South 3.5 mph - N/A   Mostly Cloudy
4:55 AM 62.6 °F - 48.2 °F 59% 29.88 in 10.0 mi SSE 5.8 mph - N/A   Overcast
5:15 AM 60.8 °F - 50.0 °F 68% 29.89 in 10.0 mi SSE 5.8 mph - N/A   Overcast
5:55 AM 62.6 °F - 48.2 °F 59% 29.89 in 10.0 mi ESE 6.9 mph - N/A   Scattered Clouds
6:15 AM 62.6 °F - 50.0 °F 63% 29.89 in 10.0 mi SSW 3.5 mph - N/A   Overcast
6:35 AM 62.6 °F - 50.0 °F 63% 29.89 in 10.0 mi SE 8.1 mph - N/A   Mostly Cloudy
7:15 AM 62.6 °F - 51.8 °F 68% 29.90 in 10.0 mi Calm Calm - N/A   Overcast
7:35 AM 62.6 °F - 51.8 °F 68% 29.90 in 10.0 mi SE 3.5 mph - N/A   Overcast
7:55 AM 64.4 °F - 51.8 °F 64% 29.90 in 10.0 mi Calm Calm - N/A   Overcast
8:35 AM 64.4 °F - 51.8 °F 64% 29.90 in 10.0 mi Calm Calm - N/A   Overcast
8:55 AM 64.4 °F - 51.8 °F 64% 29.90 in 10.0 mi SSE 3.5 mph - N/A   Overcast
9:15 AM 64.4 °F - 51.8 °F 64% 29.90 in 10.0 mi South 3.5 mph - N/A   Overcast
9:35 AM 66.2 °F - 53.6 °F 64% 29.90 in 10.0 mi South 4.6 mph - N/A   Overcast
10:15 AM 68.0 °F - 53.6 °F 60% 29.89 in 10.0 mi WSW 3.5 mph - N/A   Overcast
10:35 AM 69.8 °F - 53.6 °F 56% 29.89 in 10.0 mi Calm Calm - N/A   Overcast
10:55 AM 71.6 °F - 55.4 °F 57% 29.89 in 10.0 mi Calm Calm - N/A   Overcast
11:15 AM 71.6 °F - 55.4 °F 57% 29.88 in 10.0 mi WNW 3.5 mph - N/A   Overcast
11:35 AM 73.4 °F - 55.4 °F 53% 29.87 in 10.0 mi Calm Calm - N/A   Scattered Clouds
11:55 AM 73.4 °F - 55.4 °F 53% 29.87 in 10.0 mi SSW 6.9 mph - N/A   Partly Cloudy
12:15 PM 75.2 °F - 55.4 °F 50% 29.86 in 3.0 mi West 6.9 mph - N/A   Partly Cloudy
12:35 PM 75.2 °F - 55.4 °F 50% 29.86 in 10.0 mi West 4.6 mph - N/A   Scattered Clouds
12:55 PM 75.2 °F - 55.4 °F 50% 29.86 in 10.0 mi Calm Calm - N/A   Mostly Cloudy
1:15 PM 77.0 °F - 55.4 °F 47% 29.85 in 10.0 mi NW 5.8 mph - N/A   Scattered Clouds
1:35 PM 77.0 °F - 53.6 °F 44% 29.85 in 10.0 mi South 3.5 mph - N/A   Clear
1:55 PM 78.8 °F - 55.4 °F 44% 29.85 in 10.0 mi Calm Calm - N/A   Clear
2:35 PM 78.8 °F - 57.2 °F 47% 29.84 in 10.0 mi NW 4.6 mph - N/A   Mostly Cloudy
3:15 PM 80.6 °F 80.5 °F 55.4 °F 42% 29.83 in 10.0 mi West 3.5 mph - N/A   Clear
3:35 PM 78.8 °F - 55.4 °F 44% 29.83 in 10.0 mi Calm Calm - N/A   Partly Cloudy
3:55 PM 80.6 °F 80.3 °F 53.6 °F 39% 29.83 in 10.0 mi SW 3.5 mph - N/A   Partly Cloudy
4:15 PM 78.8 °F - 55.4 °F 44% 29.82 in 10.0 mi South 3.5 mph - N/A   Clear
4:35 PM 78.8 °F - 55.4 °F 44% 29.82 in 10.0 mi South 4.6 mph - N/A   Clear
4:55 PM 78.8 °F - 57.2 °F 47% 29.82 in 10.0 mi SW 4.6 mph - N/A   Clear
5:15 PM 78.8 °F - 57.2 °F 47% 29.82 in 10.0 mi SSW 5.8 mph - N/A   Clear
5:35 PM 80.6 °F 80.8 °F 57.2 °F 45% 29.82 in 10.0 mi South 5.8 mph - N/A   Clear
5:55 PM 80.6 °F 80.5 °F 55.4 °F 42% 29.82 in 10.0 mi SSW 3.5 mph - N/A   Scattered Clouds
6:15 PM 80.6 °F 80.8 °F 57.2 °F 45% 29.82 in 10.0 mi NW 5.8 mph - N/A   Overcast
6:35 PM 78.8 °F - 57.2 °F 47% 29.82 in 10.0 mi Calm Calm - N/A   Overcast
7:55 PM 75.2 °F - 57.2 °F 53% 29.84 in 10.0 mi North 4.6 mph - N/A Thunderstorm Overcast
8:15 PM 71.6 °F - 57.2 °F 60% 29.87 in 10.0 mi WNW 10.4 mph 18.4 mph N/A Thunderstorm Thunderstorm
8:35 PM 66.2 °F - 55.4 °F 68% 29.87 in 7.0 mi NNE 4.6 mph - 0.39 in Thunderstorm Thunderstorm
8:55 PM 66.2 °F - 55.4 °F 68% 29.87 in 7.0 mi East 9.2 mph - 0.52 in Thunderstorm Thunderstorm
9:15 PM 66.2 °F - 55.4 °F 68% 29.86 in 10.0 mi SW 5.8 mph - 0.04 in   Mostly Cloudy
9:35 PM 66.2 °F - 55.4 °F 68% 29.86 in 10.0 mi South 5.8 mph - 0.04 in   Partly Cloudy
9:55 PM 66.2 °F - 55.4 °F 68% 29.86 in 10.0 mi SE 5.8 mph - 0.05 in   Clear
10:35 PM 66.2 °F - 55.4 °F 68% 29.86 in 10.0 mi SE 5.8 mph - N/A   Partly Cloudy
10:55 PM 66.2 °F - 55.4 °F 68% 29.86 in 10.0 mi Calm Calm - N/A   Partly Cloudy
11:15 PM 64.4 °F - 55.4 °F 73% 29.85 in 4.0 mi NNE 3.5 mph - N/A   Clear
11:35 PM 64.4 °F - 55.4 °F 73% 29.86 in 5.0 mi Calm Calm - N/A   Partly Cloudy
11:55 PM 66.2 °F - 55.4 °F 68% 29.86 in 9.0 mi East 4.6 mph - N/A   Scattered Clouds